Regional Weather Roundup
Issued by NWS

Home | Current Version | Previous Version | Graphics & Text | Print | Product List | Glossary On
Versions: 1 2 3 4 5 6 7 8 9 10 11 12 13 14 15 16 17 18 19 20 21 22 23 24 25 26 27 28 29 30 31 32 33 34 35 36 37 38 39 40 41 42 43 44 45 46 47 48 49 50
000
ASUS44 KMEG 240310
RWRTN
TENNESSEE HOURLY STATE WEATHER ROUNDUP
NATIONAL WEATHER SERVICE MEMPHIS TN
1000 PM CDT TUE AUG 23 2016

TNZ002-004-019-021-049-052-054-088>092-240400-
WEST TENNESSEE

CITY           SKY/WX    TMP DP  RH WIND       PRES   REMARKS
MEMPHIS INTL   PTCLDY    81  74  79 S6        30.14S
NWS MEMPHIS      N/A     79 N/A N/A MISG        N/A
JACKSON        CLOUDY    77  76  96 E5        30.17R
DYERSBURG      CLEAR     81  73  78 MISG      30.14S
UNION CITY     CLEAR     75  75 100 SE5       30.14S
PARIS          CLEAR     72  72 100 SE5       30.18S
$$

TNZ008-025-027-028-033-062-065-066-240400-
NORTH MIDDLE TENNESSEE

CITY           SKY/WX    TMP DP  RH WIND       PRES   REMARKS
NASHVILLE      PTCLDY    76  71  85 CALM      30.21R
CLARKSVILLE    PTCLDY    74  71  91 SE3       30.19R
SMYRNA         CLEAR     79  72  78 MISG      30.21R
COOKEVILLE     CLEAR     72  70  94 CALM      30.24R
CROSSVILLE     CLOUDY    70  65  84 CALM      30.29S
$$

TNZ061-075-076-078-094-096-097-240400-
SOUTH MIDDLE TENNESSEE

CITY           SKY/WX    TMP DP  RH WIND       PRES   REMARKS
FAYETTEVILLE   PTCLDY    75  70  83 CALM      30.23R
TULLAHOMA      CLEAR     72  70  94 CALM      30.25S
WINCHESTER     CLEAR     72  70  94 CALM      30.24S
MCMINNVILLE    CLEAR     72  72 100 CALM      30.24S
COLUMBIA       CLEAR    N/A N/A N/A CALM      30.20R
SHELBYVILLE    CLEAR     75  73  94 E3        30.23S
$$

TNZ017-018-042-046-047-240400-
NORTHEAST TENNESSEE

CITY           SKY/WX    TMP DP  RH WIND       PRES   REMARKS
TRI CITIES     PTCLDY    68  63  84 N3        30.29R
ELIZABETHTON   CLEAR     68  64  88 E5        30.30S
$$

TNZ012-013-036-069-073-074-240400-
CENTRAL EAST TENNESSEE

CITY           SKY/WX    TMP DP  RH WIND       PRES   REMARKS
KNOXVILLE      MOCLDY    77  66  68 CALM      30.24R
OAK RIDGE      CLEAR     72  66  81 CALM      30.26R
GATLINBURG     CLEAR     72  66  83 CALM      30.25R
MORRISTOWN     CLOUDY    73  66  78 CALM      30.26R
$$

TNZ083-085-099-240400-
SOUTHEAST TENNESSEE

CITY           SKY/WX    TMP DP  RH WIND       PRES   REMARKS
CHATTANOOGA    MOCLDY    80  67  64 CALM      30.23R
$$

SKY/WX REPORTED AS FAIR MEANS FEW OR NO CLOUDS BELOW
12 THOUSAND FEET.





USA.gov is the U.S. government's official web portal to all federal, state and local government web resources and services.